300P/Catalina (2018)

Japanese version
Home page
Updated on October 28, 2018

---------------------------------------------------------------------

* Profile

* Orbital Elements

Epoch 2018 Nov. 18.0 TT = JDT 2458440.5
T 2018 Nov. 2.05153 TT                                  MPCW
q   0.8328086            (2000.0)            P               Q
n   0.22225096     Peri.  222.84875     +0.74590048     +0.65874572
a   2.6992324      Node    95.67398     -0.58121659     +0.71591223
e   0.6914647      Incl.    5.67611     -0.32529946     +0.23135201
P   4.43
From 607 observations 2005 May 6-2018 Sept. 17, mean residual 0".8.
     Nongravitational parameters A1 = +0.37, A2 = -0.0098.

* Finding Charts

* Magnitudes Graph

        H = 17.5  G = 0.15                [   ,-87]  (             - 2018 Aug.  7)
        m1 = 16.0 + 5 log d + 23.0 log r  [-87, 85]  (2018 Aug.  7 - 2019 Jan. 26)
        H = 17.5  G = 0.15                [ 85,   ]  (2019 Jan. 26 -             )

---------------------------------------------------------------------

The orbital elements are published on M.P.E.C. 2018-S50.
The charts are made with StellaNavigator Ver.10 (AstroArts).
The magnitudes graphs are made with Comet for Windows.

---------------------------------------------------------------------

Copyright(C) Seiichi Yoshida (comet@aerith.net). All rights reserved.